MOLNIYA 1-62

Last updated on Nov. 12, 2019, 4:19 a.m. UTC

1 15214U 84089A   19314.54669358 -.00000307  00000-0 -13567-1 0  9991
2 15214  62.7326 162.5272 7186965 264.1183  17.6224  1.97933773225452
UTC
Height (km)
Latitude
Longitude
Inclination
Orbital Period
UTC large
Height (km)
Speed (km/s)
/
Latitude / Longitude
Inclination (degrees)
Orbital Period (minutes)
Azimuth
Elevation
Range (km)
Doppler Factor
iOS Compass Heading
iOS Angle

Next 30 passes for location: Hong Kong

Rise time Rise Azimuth (degrees) Set time Set Azimuth (degrees) Duration Max altitude (degrees)

No matching passes for this satellites